Time,TemperatureF,DewpointF,PressureIn,WindDirection,WindDirectionDegrees,WindSpeedMPH,WindSpeedGustMPH,Humidity,HourlyPrecipIn,Conditions,Clouds,dailyrainin,SoftwareType,DateUTC
2013-05-06 00:01:00,58.0,51.0,-100.00,West,279,7.0,-999.0,75,0.00,,,-99.99,,2013-05-06 07:01:00,
2013-05-06 00:11:00,58.0,51.0,-100.00,West,279,7.0,-999.0,75,0.00,,,-99.99,,2013-05-06 07:11:00,
2013-05-06 00:22:00,58.0,51.0,-100.00,West,279,7.0,-999.0,75,0.00,,,-99.99,,2013-05-06 07:22:00,
2013-05-06 00:31:00,58.0,51.0,-100.00,West,279,7.0,-999.0,75,0.00,,,-99.99,,2013-05-06 07:31:00,
2013-05-06 00:41:00,58.0,51.0,-100.00,West,279,7.0,-999.0,75,0.00,,,-99.99,,2013-05-06 07:41:00,
2013-05-06 01:01:00,59.0,50.0,-100.00,West,264,6.0,-999.0,74,0.00,,,-99.99,,2013-05-06 08:01:00,
2013-05-06 01:12:00,59.0,50.0,-100.00,West,264,6.0,-999.0,74,0.00,,,-99.99,,2013-05-06 08:12:00,
2013-05-06 01:22:00,59.0,50.0,-100.00,West,264,6.0,-999.0,74,0.00,,,-99.99,,2013-05-06 08:22:00,
2013-05-06 01:31:00,59.0,50.0,-100.00,West,264,6.0,-999.0,74,0.00,,,-99.99,,2013-05-06 08:31:00,
2013-05-06 01:41:00,59.0,50.0,-100.00,West,264,6.0,-999.0,74,0.00,,,-99.99,,2013-05-06 08:41:00,
2013-05-06 02:01:00,58.0,50.0,-100.00,WSW,246,5.0,-999.0,76,0.00,,,-99.99,,2013-05-06 09:01:00,
2013-05-06 02:11:00,58.0,50.0,-100.00,WSW,246,5.0,-999.0,76,0.00,,,-99.99,,2013-05-06 09:11:00,
2013-05-06 02:22:00,58.0,50.0,-100.00,WSW,246,5.0,-999.0,76,0.00,,,-99.99,,2013-05-06 09:22:00,
2013-05-06 02:32:00,58.0,50.0,-100.00,WSW,246,5.0,-999.0,76,0.00,,,-99.99,,2013-05-06 09:32:00,
2013-05-06 02:42:00,58.0,50.0,-100.00,WSW,246,5.0,-999.0,76,0.00,,,-99.99,,2013-05-06 09:42:00,
2013-05-06 03:02:00,57.0,50.0,-100.00,West,274,6.0,-999.0,78,0.00,,,-99.99,,2013-05-06 10:02:00,
2013-05-06 03:12:00,57.0,50.0,-100.00,West,274,6.0,-999.0,78,0.00,,,-99.99,,2013-05-06 10:12:00,
2013-05-06 03:22:00,57.0,50.0,-100.00,West,274,6.0,-999.0,78,0.00,,,-99.99,,2013-05-06 10:22:00,
2013-05-06 03:32:00,57.0,50.0,-100.00,West,274,6.0,-999.0,78,0.00,,,-99.99,,2013-05-06 10:32:00,
2013-05-06 03:41:00,57.0,50.0,-100.00,West,274,6.0,-999.0,78,0.00,,,-99.99,,2013-05-06 10:41:00,
2013-05-06 04:02:00,57.0,51.0,-100.00,WSW,258,5.0,-999.0,80,0.00,,,-99.99,,2013-05-06 11:02:00,
2013-05-06 04:12:00,57.0,51.0,-100.00,WSW,258,5.0,-999.0,80,0.00,,,-99.99,,2013-05-06 11:12:00,
2013-05-06 04:22:00,57.0,51.0,-100.00,WSW,258,5.0,-999.0,80,0.00,,,-99.99,,2013-05-06 11:22:00,
2013-05-06 04:31:00,57.0,51.0,-100.00,WSW,258,5.0,-999.0,80,0.00,,,-99.99,,2013-05-06 11:31:00,
2013-05-06 04:41:00,57.0,51.0,-100.00,WSW,258,5.0,-999.0,80,0.00,,,-99.99,,2013-05-06 11:41:00,
2013-05-06 05:01:00,56.0,50.0,-100.00,West,276,4.0,-999.0,80,0.00,,,-99.99,,2013-05-06 12:01:00,
2013-05-06 05:12:00,56.0,50.0,-100.00,West,276,4.0,-999.0,80,0.00,,,-99.99,,2013-05-06 12:12:00,
2013-05-06 05:21:00,56.0,50.0,-100.00,West,276,4.0,-999.0,80,0.00,,,-99.99,,2013-05-06 12:21:00,
2013-05-06 05:31:00,56.0,50.0,-100.00,West,276,4.0,-999.0,80,0.00,,,-99.99,,2013-05-06 12:31:00,
2013-05-06 05:41:00,56.0,50.0,-100.00,West,276,4.0,-999.0,80,0.00,,,-99.99,,2013-05-06 12:41:00,
2013-05-06 06:01:00,55.0,50.0,-100.00,WNW,294,4.0,-999.0,84,0.00,,,-99.99,,2013-05-06 13:01:00,
2013-05-06 06:11:00,55.0,50.0,-100.00,WNW,294,4.0,-999.0,84,0.00,,,-99.99,,2013-05-06 13:11:00,
2013-05-06 06:21:00,55.0,50.0,-100.00,WNW,294,4.0,-999.0,84,0.00,,,-99.99,,2013-05-06 13:21:00,
2013-05-06 06:31:00,55.0,50.0,-100.00,WNW,294,4.0,-999.0,84,0.00,,,-99.99,,2013-05-06 13:31:00,
2013-05-06 06:42:00,55.0,50.0,-100.00,WNW,294,4.0,-999.0,84,0.00,,,-99.99,,2013-05-06 13:42:00,
2013-05-06 07:01:00,55.0,50.0,-100.00,NNE,14,1.0,-999.0,83,0.00,,,-99.99,,2013-05-06 14:01:00,
2013-05-06 07:11:00,55.0,50.0,-100.00,NNE,14,1.0,-999.0,83,0.00,,,-99.99,,2013-05-06 14:11:00,
2013-05-06 07:21:00,55.0,50.0,-100.00,NNE,14,1.0,-999.0,83,0.00,,,-99.99,,2013-05-06 14:21:00,
2013-05-06 07:32:00,55.0,50.0,-100.00,NNE,14,1.0,-999.0,83,0.00,,,-99.99,,2013-05-06 14:32:00,
2013-05-06 07:41:00,55.0,50.0,-100.00,NNE,14,1.0,-999.0,83,0.00,,,-99.99,,2013-05-06 14:41:00,
2013-05-06 08:01:00,57.0,52.0,-100.00,South,175,0.0,-999.0,83,0.00,,,-99.99,,2013-05-06 15:01:00,
2013-05-06 08:11:00,57.0,52.0,-100.00,South,175,0.0,-999.0,83,0.00,,,-99.99,,2013-05-06 15:11:00,
2013-05-06 08:21:00,57.0,52.0,-100.00,South,175,0.0,-999.0,83,0.00,,,-99.99,,2013-05-06 15:21:00,
2013-05-06 08:33:00,57.0,52.0,-100.00,South,175,0.0,-999.0,83,0.00,,,-99.99,,2013-05-06 15:33:00,
2013-05-06 08:42:00,57.0,52.0,-100.00,South,175,0.0,-999.0,83,0.00,,,-99.99,,2013-05-06 15:42:00,
2013-05-06 09:03:00,62.0,51.0,-100.00,SE,140,3.0,-999.0,67,0.00,,,-99.99,,2013-05-06 16:03:00,
2013-05-06 09:13:00,62.0,51.0,-100.00,SE,140,3.0,-999.0,67,0.00,,,-99.99,,2013-05-06 16:13:00,
2013-05-06 09:23:00,62.0,51.0,-100.00,SE,140,3.0,-999.0,67,0.00,,,-99.99,,2013-05-06 16:23:00,
2013-05-06 09:32:00,62.0,51.0,-100.00,SE,140,3.0,-999.0,67,0.00,,,-99.99,,2013-05-06 16:32:00,
2013-05-06 09:41:00,62.0,51.0,-100.00,SE,140,3.0,-999.0,67,0.00,,,-99.99,,2013-05-06 16:41:00,
2013-05-06 10:02:00,65.0,50.0,-100.00,SSE,158,6.0,-999.0,59,0.00,,,-99.99,,2013-05-06 17:02:00,
2013-05-06 10:12:00,65.0,50.0,-100.00,SSE,158,6.0,-999.0,59,0.00,,,-99.99,,2013-05-06 17:12:00,
2013-05-06 10:23:00,65.0,50.0,-100.00,SSE,158,6.0,-999.0,59,0.00,,,-99.99,,2013-05-06 17:23:00,
2013-05-06 10:31:00,65.0,50.0,-100.00,SSE,158,6.0,-999.0,59,0.00,,,-99.99,,2013-05-06 17:31:00,
2013-05-06 10:42:00,65.0,50.0,-100.00,SSE,158,6.0,-999.0,59,0.00,,,-99.99,,2013-05-06 17:42:00,
2013-05-06 11:01:00,67.0,49.0,-100.00,ESE,114,6.0,-999.0,52,0.00,,,-99.99,,2013-05-06 18:01:00,
2013-05-06 11:12:00,67.0,49.0,-100.00,ESE,114,6.0,-999.0,52,0.00,,,-99.99,,2013-05-06 18:12:00,
2013-05-06 11:21:00,67.0,49.0,-100.00,ESE,114,6.0,-999.0,52,0.00,,,-99.99,,2013-05-06 18:21:00,
2013-05-06 11:31:00,67.0,49.0,-100.00,ESE,114,6.0,-999.0,52,0.00,,,-99.99,,2013-05-06 18:31:00,
2013-05-06 11:42:00,67.0,49.0,-100.00,ESE,114,6.0,-999.0,52,0.00,,,-99.99,,2013-05-06 18:42:00,
2013-05-06 12:01:00,68.0,50.0,-100.00,North,4,6.0,-999.0,53,0.00,,,-99.99,,2013-05-06 19:01:00,
2013-05-06 12:11:00,68.0,50.0,-100.00,North,4,6.0,-999.0,53,0.00,,,-99.99,,2013-05-06 19:11:00,
2013-05-06 12:22:00,68.0,50.0,-100.00,North,4,6.0,-999.0,53,0.00,,,-99.99,,2013-05-06 19:22:00,
2013-05-06 12:32:00,68.0,50.0,-100.00,North,4,6.0,-999.0,53,0.00,,,-99.99,,2013-05-06 19:32:00,
2013-05-06 12:41:00,68.0,50.0,-100.00,North,4,6.0,-999.0,53,0.00,,,-99.99,,2013-05-06 19:41:00,
2013-05-06 13:01:00,68.0,51.0,-100.00,NE,55,12.0,-999.0,54,0.00,,,-99.99,,2013-05-06 20:01:00,
2013-05-06 13:11:00,68.0,51.0,-100.00,NE,55,12.0,-999.0,54,0.00,,,-99.99,,2013-05-06 20:11:00,
2013-05-06 13:21:00,68.0,51.0,-100.00,NE,55,12.0,-999.0,54,0.00,,,-99.99,,2013-05-06 20:21:00,
2013-05-06 13:32:00,68.0,51.0,-100.00,NE,55,12.0,-999.0,54,0.00,,,-99.99,,2013-05-06 20:32:00,
2013-05-06 13:41:00,68.0,51.0,-100.00,NE,55,12.0,-999.0,54,0.00,,,-99.99,,2013-05-06 20:41:00,
2013-05-06 14:01:00,71.0,48.0,-100.00,ENE,74,8.0,-999.0,45,0.00,,,-99.99,,2013-05-06 21:01:00,
2013-05-06 14:11:00,71.0,48.0,-100.00,ENE,74,8.0,-999.0,45,0.00,,,-99.99,,2013-05-06 21:11:00,
2013-05-06 14:21:00,71.0,48.0,-100.00,ENE,74,8.0,-999.0,45,0.00,,,-99.99,,2013-05-06 21:21:00,
2013-05-06 14:32:00,71.0,48.0,-100.00,ENE,74,8.0,-999.0,45,0.00,,,-99.99,,2013-05-06 21:32:00,
2013-05-06 14:42:00,71.0,48.0,-100.00,ENE,74,8.0,-999.0,45,0.00,,,-99.99,,2013-05-06 21:42:00,
2013-05-06 14:45:00,65.0,53.0,-100.00,West,268,7.0,-999.0,66,0.00,,,-99.99,,2013-05-06 21:45:00,
2013-05-06 15:03:00,65.0,53.0,-100.00,West,268,7.0,-999.0,66,0.00,,,-99.99,,2013-05-06 22:03:00,
2013-05-06 15:12:00,65.0,53.0,-100.00,West,268,7.0,-999.0,66,0.00,,,-99.99,,2013-05-06 22:12:00,
2013-05-06 15:22:00,65.0,53.0,-100.00,West,268,7.0,-999.0,66,0.00,,,-99.99,,2013-05-06 22:22:00,
2013-05-06 15:33:00,65.0,53.0,-100.00,West,268,7.0,-999.0,66,0.00,,,-99.99,,2013-05-06 22:33:00,
2013-05-06 16:02:00,61.0,56.0,-100.00,WNW,300,8.0,-999.0,85,0.24,,,-99.99,,2013-05-06 23:02:00,
2013-05-06 16:41:00,61.0,56.0,-100.00,WNW,300,8.0,-999.0,85,0.24,,,-99.99,,2013-05-06 23:41:00,
2013-05-06 17:01:00,64.0,56.0,-100.00,NW,317,12.0,-999.0,75,0.00,,,-99.99,,2013-05-07 00:01:00,
2013-05-06 17:11:00,64.0,56.0,-100.00,NW,317,12.0,-999.0,75,0.00,,,-99.99,,2013-05-07 00:11:00,
2013-05-06 17:21:00,64.0,56.0,-100.00,NW,317,12.0,-999.0,75,0.00,,,-99.99,,2013-05-07 00:21:00,
2013-05-06 17:31:00,64.0,56.0,-100.00,NW,317,12.0,-999.0,75,0.00,,,-99.99,,2013-05-07 00:31:00,
2013-05-06 17:41:00,64.0,56.0,-100.00,NW,317,12.0,-999.0,75,0.00,,,-99.99,,2013-05-07 00:41:00,
2013-05-06 18:01:00,64.0,54.0,-100.00,WNW,293,8.0,-999.0,71,0.00,,,-99.99,,2013-05-07 01:01:00,
2013-05-06 18:11:00,64.0,54.0,-100.00,WNW,293,8.0,-999.0,71,0.00,,,-99.99,,2013-05-07 01:11:00,
2013-05-06 18:21:00,64.0,54.0,-100.00,WNW,293,8.0,-999.0,71,0.00,,,-99.99,,2013-05-07 01:21:00,
2013-05-06 18:31:00,64.0,54.0,-100.00,WNW,293,8.0,-999.0,71,0.00,,,-99.99,,2013-05-07 01:31:00,
2013-05-06 18:41:00,64.0,54.0,-100.00,WNW,293,8.0,-999.0,71,0.00,,,-99.99,,2013-05-07 01:41:00,
2013-05-06 19:02:00,63.0,54.0,-100.00,NNW,335,8.0,-999.0,71,0.00,,,-99.99,,2013-05-07 02:02:00,
2013-05-06 19:11:00,63.0,54.0,-100.00,NNW,335,8.0,-999.0,71,0.00,,,-99.99,,2013-05-07 02:11:00,
2013-05-06 19:21:00,63.0,54.0,-100.00,NNW,335,8.0,-999.0,71,0.00,,,-99.99,,2013-05-07 02:21:00,
2013-05-06 19:31:00,63.0,54.0,-100.00,NNW,335,8.0,-999.0,71,0.00,,,-99.99,,2013-05-07 02:31:00,
2013-05-06 19:41:00,63.0,54.0,-100.00,NNW,335,8.0,-999.0,71,0.00,,,-99.99,,2013-05-07 02:41:00,
2013-05-06 20:01:00,62.0,53.0,-100.00,WNW,286,8.0,-999.0,71,0.00,,,-99.99,,2013-05-07 03:01:00,
2013-05-06 20:11:00,62.0,53.0,-100.00,WNW,286,8.0,-999.0,71,0.00,,,-99.99,,2013-05-07 03:11:00,
2013-05-06 20:21:00,62.0,53.0,-100.00,WNW,286,8.0,-999.0,71,0.00,,,-99.99,,2013-05-07 03:21:00,
2013-05-06 20:32:00,62.0,53.0,-100.00,WNW,286,8.0,-999.0,71,0.00,,,-99.99,,2013-05-07 03:32:00,
2013-05-06 20:42:00,62.0,53.0,-100.00,WNW,286,8.0,-999.0,71,0.00,,,-99.99,,2013-05-07 03:42:00,
2013-05-06 21:02:00,61.0,50.0,-100.00,WNW,294,8.0,-999.0,68,0.00,,,-99.99,,2013-05-07 04:02:00,
2013-05-06 21:12:00,61.0,50.0,-100.00,WNW,294,8.0,-999.0,68,0.00,,,-99.99,,2013-05-07 04:12:00,
2013-05-06 21:23:00,61.0,50.0,-100.00,WNW,294,8.0,-999.0,68,0.00,,,-99.99,,2013-05-07 04:23:00,
2013-05-06 21:33:00,61.0,50.0,-100.00,WNW,294,8.0,-999.0,68,0.00,,,-99.99,,2013-05-07 04:33:00,
2013-05-06 21:42:00,61.0,50.0,-100.00,WNW,294,8.0,-999.0,68,0.00,,,-99.99,,2013-05-07 04:42:00,
2013-05-06 22:02:00,60.0,52.0,-100.00,WNW,295,6.0,-999.0,74,0.00,,,-99.99,,2013-05-07 05:02:00,
2013-05-06 22:12:00,60.0,52.0,-100.00,WNW,295,6.0,-999.0,74,0.00,,,-99.99,,2013-05-07 05:12:00,
2013-05-06 22:22:00,60.0,52.0,-100.00,WNW,295,6.0,-999.0,74,0.00,,,-99.99,,2013-05-07 05:22:00,
2013-05-06 22:32:00,60.0,52.0,-100.00,WNW,295,6.0,-999.0,74,0.00,,,-99.99,,2013-05-07 05:32:00,
2013-05-06 22:42:00,60.0,52.0,-100.00,WNW,295,6.0,-999.0,74,0.00,,,-99.99,,2013-05-07 05:42:00,
2013-05-06 23:02:00,60.0,52.0,-100.00,WNW,284,6.0,-999.0,77,0.00,,,-99.99,,2013-05-07 06:02:00,
2013-05-06 23:12:00,60.0,52.0,-100.00,WNW,284,6.0,-999.0,77,0.00,,,-99.99,,2013-05-07 06:12:00,
2013-05-06 23:22:00,60.0,52.0,-100.00,WNW,284,6.0,-999.0,77,0.00,,,-99.99,,2013-05-07 06:22:00,
2013-05-06 23:32:00,60.0,52.0,-100.00,WNW,284,6.0,-999.0,77,0.00,,,-99.99,,2013-05-07 06:32:00,
2013-05-06 23:41:00,60.0,52.0,-100.00,WNW,284,6.0,-999.0,77,0.00,,,-99.99,,2013-05-07 06:41:00,